TimePST,TemperatureF,Dew PointF,Humidity,Sea Level PressureIn,VisibilityMPH,Wind Direction,Wind SpeedMPH,Gust SpeedMPH,PrecipitationIn,Events,Conditions,WindDirDegrees,DateUTC
12:30 AM,55.4,51.8,88,30.19,9.0,Calm,Calm,-,N/A,,Partly Cloudy,0,2012-11-19 08:30:00
12:53 AM,55.9,52.0,87,30.19,10.0,Calm,Calm,-,N/A,,Mostly Cloudy,0,2012-11-19 08:53:00
1:00 AM,55.4,53.6,94,30.19,10.0,Calm,Calm,-,N/A,,Scattered Clouds,0,2012-11-19 09:00:00
1:37 AM,55.4,51.8,88,30.19,10.0,Calm,Calm,-,N/A,,Mostly Cloudy,0,2012-11-19 09:37:00
1:53 AM,55.9,52.0,87,30.18,10.0,Calm,Calm,-,N/A,,Mostly Cloudy,0,2012-11-19 09:53:00
2:02 AM,55.4,51.8,88,30.18,10.0,Calm,Calm,-,N/A,,Scattered Clouds,0,2012-11-19 10:02:00
2:09 AM,55.4,51.8,88,30.18,10.0,Calm,Calm,-,N/A,,Mostly Cloudy,0,2012-11-19 10:09:00
2:53 AM,55.9,52.0,87,30.17,10.0,ENE,3.5,-,N/A,,Overcast,60,2012-11-19 10:53:00
3:18 AM,53.6,51.8,94,30.17,10.0,Calm,Calm,-,N/A,,Mostly Cloudy,0,2012-11-19 11:18:00
3:37 AM,55.4,51.8,88,30.17,10.0,Calm,Calm,-,N/A,,Partly Cloudy,0,2012-11-19 11:37:00
3:53 AM,55.4,51.8,88,30.17,10.0,Calm,Calm,-,N/A,,Scattered Clouds,0,2012-11-19 11:53:00
4:04 AM,55.4,51.8,88,30.17,10.0,Calm,Calm,-,N/A,,Mostly Cloudy,0,2012-11-19 12:04:00
4:18 AM,53.6,51.8,94,30.17,10.0,Calm,Calm,-,N/A,,Scattered Clouds,0,2012-11-19 12:18:00
4:53 AM,54.0,50.0,86,30.18,10.0,Calm,Calm,-,N/A,,Clear,0,2012-11-19 12:53:00
5:53 AM,53.1,50.0,89,30.20,8.0,Calm,Calm,-,N/A,,Clear,0,2012-11-19 13:53:00
6:53 AM,54.0,51.1,90,30.23,9.0,Calm,Calm,-,N/A,,Scattered Clouds,0,2012-11-19 14:53:00
7:53 AM,59.0,53.1,81,30.24,7.0,Calm,Calm,-,N/A,,Mostly Cloudy,0,2012-11-19 15:53:00
8:53 AM,62.1,54.0,75,30.25,7.0,Variable,3.5,-,N/A,,Partly Cloudy,0,2012-11-19 16:53:00
9:53 AM,66.0,54.0,65,30.25,8.0,Calm,Calm,-,N/A,,Clear,0,2012-11-19 17:53:00
10:53 AM,68.0,53.6,60,30.23,10.0,Calm,Calm,-,N/A,,Partly Cloudy,0,2012-11-19 18:53:00
11:53 AM,69.1,51.1,53,30.20,10.0,Calm,Calm,-,N/A,,Partly Cloudy,0,2012-11-19 19:53:00
12:53 PM,70.0,51.1,51,30.18,10.0,Variable,4.6,-,N/A,,Clear,0,2012-11-19 20:53:00
1:53 PM,71.1,51.1,49,30.17,10.0,West,6.9,-,N/A,,Clear,280,2012-11-19 21:53:00
2:53 PM,69.1,52.0,54,30.16,10.0,WNW,10.4,-,N/A,,Clear,300,2012-11-19 22:53:00
3:53 PM,66.0,53.1,63,30.17,10.0,WNW,12.7,-,N/A,,Clear,300,2012-11-19 23:53:00
4:53 PM,63.0,54.0,72,30.17,10.0,WNW,12.7,-,N/A,,Clear,290,2012-11-20 00:53:00
5:53 PM,61.0,55.0,81,30.18,10.0,WNW,8.1,-,N/A,,Clear,300,2012-11-20 01:53:00
6:53 PM,61.0,54.0,78,30.19,10.0,NW,6.9,-,N/A,,Clear,310,2012-11-20 02:53:00
7:53 PM,59.0,54.0,83,30.19,10.0,Calm,Calm,-,N/A,,Clear,0,2012-11-20 03:53:00
8:53 PM,59.0,52.0,78,30.20,10.0,NNW,3.5,-,N/A,,Clear,340,2012-11-20 04:53:00
9:53 PM,57.9,53.1,84,30.19,10.0,Calm,Calm,-,N/A,,Clear,0,2012-11-20 05:53:00
10:53 PM,55.9,51.1,84,30.17,10.0,Calm,Calm,-,N/A,,Clear,0,2012-11-20 06:53:00
11:53 PM,55.0,50.0,83,30.17,10.0,Calm,Calm,-,N/A,,Clear,0,2012-11-20 07:53:00